SL-8 R/B, 3230

Orbit data source: Space-Track

SL-8 R/B, 3230 is space debris in LEO originally from a launch on Tue, 07 May 1968 UTC launched from the Plesetsk Missile And Space Complex (PKMTR). Debris objects in space refer to the collection of defunct objects orbiting the Earth. Examples of debris include non-operational satellites, rocket bodies, and fragments generated from explosions, collisions, or faulty payload assembly.

Loading next visibility...
Identifier
3230, 1968-040B
Orbit
LEO
Country
Flag of CISCIS
Related business
Manufacturer
Yuzhnoe
Mission
Spacecraft
Bus & Motor
S3, Unknown motor
Mass
1,434 kg wet, 1,434 kg dry
Launch date (UTC)
1968-05-07 (58 years ago)
Launch vehicle
Unknown
Launch site
Plesetsk Missile And Space Complex (PKMTR)
Object type
Payload
Rocket body
Debris
Shape & HBR
Unknown
Radar Cross Section
Large (>1 m²)

Expand to show TLE details & history
Last TLE update: 10 hours ago

TLE from 10 hours ago
0 SL-8 R/B
1  3230U 68040B   26123.67372830  .00002657  00000-0  19616-3 0  9992
2  3230  74.0310 201.3083 0024541   3.5549 356.5809 15.03602038 98274
Epoch: 2026-05-03T16:10Z
TLE epoch observation values (Epoch: 2026-05-03T16:10:10.125Z)
Latitude
-0.00001°
Longitude
97.19221°
Altitude
541.503 km
Speed
7.601 km/s
True Right ascension
13h 25m 13s
True Declination
0° 00' 00"
Sunlit
Object was in full shadow at epoch
Visualization orbit readout
Latitude
Unknown
Longitude
Unknown
Altitude
Unknown
Speed
Unknown
Apparent Right ascension
Unknown
Apparent Declination
Unknown
Sunlit
N/A
Visualization observer readout
Local Sidereal Time
10:15:20
Azimuth
Unknown
Elevation
Unknown
Doppler factor
Unknown
Orbital elements
Apogee altitude
570.361 km
Perigee altitude
536.34 km
Semi-major axis
6,931.487 km
Eccentricity
0.00245
Inclination
74.031°
RAAN
201.3083°
Arg. of periapsis
3.5549°
True anomaly
356.56408°
Mean anomaly
356.5809°
Eccentric anomaly
356.57249°
Mean motion
3.761 °/min
Orbital period
95.72 mins
BSTAR
0.00019616
Loading maneuver chart data...
Computing Atmospheric mass density...
Loading historical data...
Loading historical data...
Loading historical data...
Loading historical data...
Loading historical data...
Loading historical data...
Loading historical data...
Other satellites on launch #40 in the year 1968 (1968-05-07 UTC)

Documentation

Showing up to 5 results
|